Regional Weather Roundup
Issued by NWS

Home | Current Version | Previous Version | Graphics & Text | Print | Product List | Glossary On
Versions: 1 2 3 4 5 6 7 8 9 10 11 12 13 14 15 16 17 18 19 20 21 22 23 24 25 26 27 28 29 30 31 32 33 34 35 36 37 38 39 40 41 42 43 44 45 46 47 48 49 50
000
ASUS43 KLOT 221408
RWRIL

ILLINOIS REGIONAL WEATHER ROUNDUP
NATIONAL WEATHER SERVICE CHICAGO/ROMEOVILLE IL
900 AM CDT THU JUN 22 2017

NOTE: "FAIR" INDICATES FEW OR NO CLOUDS BELOW 12,000 FEET WITH NO
SIGNIFICANT WEATHER AND/OR OBSTRUCTIONS TO VISIBILITY.

* THESE STATIONS ARE NOT UNDER NWS QUALITY CONTROL. THEY ALSO MAY NOT
  REPORT WEATHER SUCH AS PRECIPITATION OR FOG.

ILZ001-002-007-009-015-016-024-221500-
NORTHWEST ILLINOIS

CITY           SKY/WX    TMP DP  RH WIND       PRES   REMARKS
MOLINE         SUNNY     78  67  68 S8        29.80F HX  80
STERLING*      PTSUNNY   77  69  76 VRB3      29.84S
SAVANNA*       PTSUNNY   77  69  76 S5        29.81F
$$

ILZ003-004-008-010-011-017-018-221500-
NORTH CENTRAL ILLINOIS

CITY           SKY/WX    TMP DP  RH WIND       PRES   REMARKS
ROCKFORD       CLOUDY    76  68  76 S13       29.84F
FREEPORT*      CLOUDY    74  68  80 S7        29.84S
ROCHELLE*      MOSUNNY   77  67  71 SW8       29.86S
DE KALB*       MOSUNNY   77  67  71 SW15      29.87S
PERU*          PTSUNNY   75  68  77 S8        29.87F
$$

ILZ005-006-012>014-019>023-221500-
NORTHEAST ILLINOIS

CITY           SKY/WX    TMP DP  RH WIND       PRES   REMARKS
CHICAGO-OHARE  CLOUDY    80  67  64 SW13      29.85F HX  82
CHICAGO-MIDWAY CLOUDY    79  68  69 SW15      29.87F HX  81
AURORA         CLOUDY    79  69  71 S12       29.87F HX  81
LANSING*       CLOUDY    74  68  81 S9        29.91F
JOLIET*        CLOUDY    78  71  77 S7        29.89F HX  81
WAUKEGAN       PTSUNNY   77  68  73 SW14      29.82F
DUPAGE AIRPORT MOSUNNY   79  70  74 SW13      29.85F HX  82
WHEELING       PTSUNNY   80  68  66 S13       29.85F HX  83
MORRIS*        CLOUDY    78  69  73 S13       29.88F HX  80
ROMEOVILLE*    CLOUDY    78  67  67 SW15      29.88F HX  80
NORTHERLY ISL    N/A     77  65  66 S6          N/A
$$

LMZ740>746-221500-
SOUTHERN LAKE MICHIGAN

STATION/POSITION SKY/WX   TEMP    WIND        PRES    VSBY  WAVE
                          AIR SEA DIR/SP/G                  HT/PER
                          (F)     (DEG/KT/KT) (MB)    (MI)  (FT/S)
SOUTHERN BUOY              65 61  180/ 10/ 10 1010.9          2/ 4
WILMETTE HARBOR            74 63  210/ 12/ 16   N/A           1/ 2
HARRISON CRIB              77     210/ 18/ 20   N/A
BURNHAM HARBOR             78                   N/A
CALUMET HARBOR             76     190/  9/ 13 1011.4F
BURNS HARBOR               76     210/ 12/ 18 1013.2R
MICHIGAN CITY              75     190/ 13/ 15   N/A
MICHIGAN CITY 6N           72 68  200/ 12/ 14   N/A           2/ 3
ST. JOSEPH                 72 69  210/ 10/ 12 1011.9          2/ 3
$$

ILZ025>027-034>036-040-047-049-050-058-095>099-221500-
WEST-CENTRAL ILLINOIS

CITY           SKY/WX    TMP DP  RH WIND       PRES   REMARKS
QUINCY         SUNNY     78  70  76 S13       29.83F HX  80
GALESBURG*     CLOUDY    77  69  76 S13G18    29.81F
MACOMB*        SUNNY     78  69  74 S13       29.84F HX  80
JACKSONVILLE*  MOSUNNY   78  70  75 S12       29.86F HX  80
PITTSFIELD*    MOSUNNY   78  71  79 S8        29.86F HX  80
$$

ILZ028>032-037-038-041>044-048-051>054-059>061-221500-
CENTRAL ILLINOIS

CITY           SKY/WX    TMP DP  RH WIND       PRES   REMARKS
PONTIAC        MOSUNNY   76  72  87 S9        29.90S
BLOOMINGTON    CLOUDY    78  70  76 SW14      29.89F HX  80
DECATUR        PTSUNNY   77  70  79 S13G25    29.90F
PEORIA         PTSUNNY   77  71  82 S9        29.85F
LACON*         PTSUNNY   77  70  81 S7        29.84F
LINCOLN*       SUNNY     79  72  77 S10G17    29.87F HX  82
SPRINGFIELD    MOSUNNY   80  72  76 S12       29.88F HX  84
TAYLORVILLE    CLOUDY    75  70  82 S9        29.91F
$$

ILZ033-039-045-046-055>057-062-063-221500-
EAST-CENTRAL ILLINOIS

CITY           SKY/WX    TMP DP  RH WIND       PRES   REMARKS
CHAMPAIGN      MOSUNNY   78  69  73 S17       29.92F HX  80
RANTOUL*       SUNNY     81  72  73 SW10G16   29.91F HX  85
MATTOON        MOSUNNY   77  71  82 S13       29.93F
PARIS*         MOSUNNY   77  71  82 S12       29.96F
$$

ILZ079-100>102-221500-
SOUTHWEST ILLINOIS

CITY           SKY/WX    TMP DP  RH WIND       PRES   REMARKS
ALTON          CLOUDY    75  70  83 S9        29.90S
BELLEVILLE     CLOUDY    77  71  83 S10       29.91R
CAHOKIA*       CLOUDY    78  70  76 S7        29.89S HX  80
SPARTA*        CLOUDY    76  70  81 SE9       29.92R
$$

ILZ064>066-069>071-074>076-080>082-084>086-088>090-092>094-221500-
SOUTH-CENTRAL ILLINOIS

CITY           SKY/WX    TMP DP  RH WIND       PRES   REMARKS
CARBONDALE     CLOUDY    77  71  82 S16       29.91S
CAIRO*         CLOUDY    75  71  86 SE9       29.91S
EFFINGHAM*     CLOUDY    80  72  76 SE10      29.94F HX  83
MARION         PTSUNNY   77  73  88 S9        29.93R
MT. VERNON     CLOUDY    78  71  79 S10       29.93R HX  80
CENTRALIA*     CLOUDY    80  73  78 S9        29.92S HX  83
SALEM*         CLOUDY    78  70  75 S7        29.93R HX  81
METROPOLIS*    CLOUDY    77  71  80 SE8       29.94S
$$

ILZ067-068-072-073-078-083-087-091-221500-
SOUTHEAST ILLINOIS

CITY           SKY/WX    TMP DP  RH WIND       PRES   REMARKS
LAWRENCEVILLE  MOSUNNY   78  70  76 S13       29.96S HX  80
FLORA*         PTSUNNY   80  71  74 S15       29.94R HX  83
FAIRFIELD*     CLOUDY    77  70  78 S7        29.94R
HARRISBURG*    CLOUDY    78  71  79 S10G17    29.94S
ROBINSON*      MOSUNNY   78  71  77 S9        29.96S HX  81
CARMI*         CLOUDY    77  70  80 SE8       29.95R
$$

ABBREVIATIONS USED IN REMARKS
   TC - TEMPERATURE IN CELSIUS
  WCI - WIND CHILL INDEX
   HX - HEAT INDEX
  VSB - VISIBILITY
$$





USA.gov is the U.S. government's official web portal to all federal, state and local government web resources and services.